Regional Weather Roundup
Issued by NWS

Home | Current Version | Previous Version | Graphics & Text | Print | Product List | Glossary On
Versions: 1 2 3 4 5 6 7 8 9 10 11 12 13 14 15 16 17 18 19 20 21 22 23 24 25 26 27 28 29 30 31 32 33 34 35 36 37 38 39 40 41 42 43 44 45 46 47 48 49 50
000
ASUS43 KLOT 261406
RWRIL

ILLINOIS REGIONAL WEATHER ROUNDUP
NATIONAL WEATHER SERVICE CHICAGO/ROMEOVILLE IL
900 AM CDT SAT JUL 26 2014

NOTE: "FAIR" INDICATES FEW OR NO CLOUDS BELOW 12,000 FEET WITH NO
SIGNIFICANT WEATHER AND/OR OBSTRUCTIONS TO VISIBILITY.

* THESE STATIONS ARE NOT UNDER NWS QUALITY CONTROL. THEY ALSO MAY NOT
  REPORT WEATHER SUCH AS PRECIPITATION OR FOG.

ILZ001-002-007-009-015-016-024-261500-
NORTHWEST ILLINOIS

CITY           SKY/WX    TMP DP  RH WIND       PRES   REMARKS
MOLINE         CLOUDY    71  64  78 CALM      29.85R
STERLING*      MOSUNNY   73  64  73 W3        29.84R
SAVANNA*       SUNNY     72  63  72 CALM      29.85R
$$

ILZ003-004-008-010-011-017-018-261500-
NORTH CENTRAL ILLINOIS

CITY           SKY/WX    TMP DP  RH WIND       PRES   REMARKS
ROCKFORD       PTSUNNY   72  63  73 CALM      29.85F
FREEPORT*      SUNNY     70  65  84 W3        29.87S
ROCHELLE*      SUNNY     72  64  76 CALM      29.84S
DE KALB*       SUNNY     70  64  81 SW5       29.85F
PERU*          CLOUDY    70  65  83 S5        29.83F
$$

ILZ005-006-012>014-019>023-261500-
NORTHEAST ILLINOIS

CITY           SKY/WX    TMP DP  RH WIND       PRES   REMARKS
CHICAGO-OHARE  CLOUDY    72  61  68 SW8       29.85S
CHICAGO-MIDWAY CLOUDY    73  64  73 S7        29.85S
AURORA         MOSUNNY   72  64  76 S3        29.85S
LANSING*       CLOUDY    70  62  77 S9        29.86S
JOLIET*        PTSUNNY   70  63  78 S7        29.86S
WAUKEGAN       CLOUDY    68  61  78 E3        29.84S
DUPAGE AIRPORT CLOUDY    73  64  73 SW6       29.84S
KANKAKEE*      CLOUDY    70  65  84 S8        29.86F
WHEELING       CLOUDY    73  63  70 VRB3      29.86F
MORRIS*        CLOUDY    71  65  82 S5        29.84S
ROMEOVILLE*    CLOUDY    71  63  77 S7        29.85S
NORTHERLY ISL    N/A     71  62  73 S3          N/A
$$

LMZ740>746-261500-
SOUTHERN LAKE MICHIGAN

STATION/POSITION SKY/WX   TEMP    WIND        PRES    VSBY  WAVE
                          AIR SEA DIR/SP/G                  HT/PER
                          (F)     (DEG/KT/KT) (MB)    (MI)  (FT/S)
SOUTHERN BUOY              63 61  140/  6/  8 1011.1F         1
WAUKEGAN HARBOR            67     170/  2/  2   N/A
HARRISON CRIB              69     160/  9/ 10   N/A
BURNHAM HARBOR             72     200/  4/  8   N/A
CALUMET HARBOR             70     200/  5/  9 1009.7S
BURNS HARBOR               69     190/  7/ 10 1011.9S
MICHIGAN CITY              69     170/  8/ 12   N/A
MICHIGAN CITY 6N           69 68  200/  6/  8   N/A           1/ 2
ST. JOSEPH                 67 66  120/  2/  4   N/A           1
$$

ILZ025>027-034>036-040-047-049-050-058-095>099-261500-
WEST-CENTRAL ILLINOIS

CITY           SKY/WX    TMP DP  RH WIND       PRES   REMARKS
QUINCY         PTSUNNY   79  72  79 SW12      29.84R HX  82
GALESBURG*     CLOUDY    74  70  88 W3        29.84R
MACOMB*        PTSUNNY   76  72  88 W12       29.85R
JACKSONVILLE*  SUNNY     79  72  80 SW14      29.85S HX  82
PITTSFIELD*    MOSUNNY   80  72  76 SW7       29.86R HX  84
$$

ILZ028>032-037-038-041>044-048-051>054-059>061-261500-
CENTRAL ILLINOIS

CITY           SKY/WX    TMP DP  RH WIND       PRES   REMARKS
PONTIAC        MOSUNNY   73  70  88 SW5       29.84S
DECATUR        SUNNY     76  69  79 SW16      29.87S
PEORIA         PTSUNNY   76  68  76 SW8       29.82S
LACON*         PTSUNNY   73  66  81 CALM      29.82S
LINCOLN*       SUNNY     78  69  74 SW6       29.82S HX  80
SPRINGFIELD    SUNNY     77  70  79 SW10G20   29.85S
TAYLORVILLE    SUNNY     73  68  83 SW12G18   29.87S
$$

ILZ033-039-045-046-055>057-062-063-261500-
EAST-CENTRAL ILLINOIS

CITY           SKY/WX    TMP DP  RH WIND       PRES   REMARKS
CHAMPAIGN      SUNNY     74  68  81 S7        29.88F
DANVILLE*      MOSUNNY   71  66  85 S9        29.86F
RANTOUL*       MOSUNNY   75  66  75 S9        29.88S
MATTOON        PTSUNNY   73  68  84 S9        29.89S
PARIS*         MOSUNNY   73  67  83 S6        29.90F
$$

ILZ079-100>102-261500-
SOUTHWEST ILLINOIS

CITY           SKY/WX    TMP DP  RH WIND       PRES   REMARKS
ALTON          SUNNY     75  73  94 S9        29.89F
BELLEVILLE     SUNNY     76  71  85 E5        29.89F
CAHOKIA*       SUNNY     79  71  76 SW3       29.90R HX  82
SPARTA*        PTSUNNY   72  68  88 S9        29.93S
$$

ILZ064>066-069>071-074>076-080>082-084>086-088>090-092>094-261500-
SOUTH-CENTRAL ILLINOIS

CITY           SKY/WX    TMP DP  RH WIND       PRES   REMARKS
CARBONDALE     SUNNY     76  69  79 S13       29.94S
CAIRO*         SUNNY     78  70  77 S9        29.98S HX  80
EFFINGHAM*     SUNNY     75  67  76 SW9       29.90S
MARION         MOSUNNY   77  70  78 S12       29.96S
MT. VERNON     SUNNY     75  66  73 SW13      29.94S
CENTRALIA*     SUNNY     79  69  71 S8        29.92S HX  81
SALEM*         SUNNY     77  71  81 SW7       29.91F
METROPOLIS*    SUNNY     77  66  68 SW12      29.98S
$$

ILZ067-068-072-073-078-083-087-091-261500-
SOUTHEAST ILLINOIS

CITY           SKY/WX    TMP DP  RH WIND       PRES   REMARKS
LAWRENCEVILLE  CLOUDY    75  67  76 S10       29.92F
FLORA*         MOSUNNY   74  68  80 SW10      29.92S
FAIRFIELD*     SUNNY     75  72  88 SW12      29.93S
HARRISBURG*    MOSUNNY   74  70  87 SW10      29.96F
ROBINSON*      CLOUDY    76  69  79 SW8       29.92F
CARMI*         MOSUNNY   77  72  83 S13       29.94S
$$

ABBREVIATIONS USED IN REMARKS
   TC - TEMPERATURE IN CELSIUS
  WCI - WIND CHILL INDEX
   HX - HEAT INDEX
  VSB - VISIBILITY
$$



USA.gov is the U.S. government's official web portal to all federal, state and local government web resources and services.